Location: Newark
(41.0400°S, 62.7845°W)
Time: 20:11:25
(UTC+00:00)

Courier 1B Rocket - Pass Details

Date: 08 December 2021
Orbit: 920 x 1202 km, 28.2° (Epoch: 22 January)

Event Time Altitude Azimuth Distance (km) Brightness Sun altitude
Rises 15:46:41 0° 286° (WNW) 3,968 8.2 71.4°
Reaches altitude 10° 15:49:49 10° 296° (WNW) 3,047 7.8 71.5°
Maximum altitude 15:56:09 29° 353° (N) 2,010 7.5 71.7°
Drops below altitude 10° 16:02:39 10° 49° (NE) 3,135 8.0 71.7°
Sets 16:05:56 0° 59° (ENE) 4,100 8.4 71.7°
